Find Starlink 37077

NORAD ID: 68169 Int'l Des: 2026-050 Owner: SPXS Country: US Constellation: starlink operational
LEOCIRCULAR

Current View

Loading 3D Globe...

About Starlink 37077

Starlink 37077 (NORAD 68169) is a starlink constellation satellite (v2 mini) launched Mar 14, 2026 by SPXS of US. It operates in LEO, CIRCULAR orbit with a mass of 575.00 kg.

About Starlink 37077

Description loading...

Upcoming Passes

Passes for default location (London). Set your location on the main map for personalized predictions.

Altitude History

Loading altitude history...

Two-Line Element Set

1 68169U 26050C 26166.18146112 .00022830 00000-0 68484-3 0 9996
2 68169 53.1569 172.9196 0001154 90.3037 269.8098 15.34395912 15627
Epoch: Jun 15, 2026 • Age: 7 hours

Current Status

Altitude 465.9 km
Velocity 7.64 km/s
Sub-Earth Point 41.43°N, 120.49°W
Launch Date Mar 14, 2026
Age 0.2 years
Type internet

Technical Details

Classification Payload
Mass 575.00 kg
Dry Mass 530.00 kg
Total Mass 575.00 kg
Length 0.30 m
Diameter 4.10 m
Span 29.00 m
Shape Box + pan
Manufacturer SPXS
Bus Type Starlink V2MO
Phase Status In Orbit
Owner/State SPXS/US

Most Searched